Weather History for Tallahassee, FL

Change the Weather History Date:

Monday, December 31, 2012

  Actual Average Record
Temperature  
Mean Temperature 48 °F 51 °F  
Max Temperature 66 °F 63 °F 80 °F (1971)
Min Temperature 30 °F 39 °F 18 °F (2000)
Degree Days  
Heating Degree Days 17    
Month to date heating degree days 267  
Since 1 July heating degree days 525  
Cooling Degree Days 0    
Month to date cooling degree days 18  
Year to date cooling degree days 2976  
Moisture  
Dew Point 38 °F    
Average Humidity 72    
Maximum Humidity 93    
Minimum Humidity 51    
Precipitation  
Precipitation 0.00 in 0.12 in 3.51 in (1975)
Month to date precipitation 3.27 3.90  
Year to date precipitation 59.31 59.23  
Sea Level Pressure  
Sea Level Pressure 30.31 in    
Wind  
Wind Speed 2 mph (SSE)    
Max Wind Speed 12 mph    
Max Gust Speed 15 mph    
Visibility 10 miles    
Events      
T = Trace of Precipitation, MM = Missing Value Source: NWS Daily Summary

Daily Weather History Graph

Daily Weather History Graph

Search for Another Location

Airport:

Trip Planner

Search our weather history database for the weather conditions in past years. The results will help you decide how hot, cold, wet, or windy it might be!

Date:

Astronomy

Dec. 31, 2012 Rise Set
Actual Time 7:34 AM EST 5:47 PM EST
Civil Twilight 7:07 AM EST 6:13 PM EST
Nautical Twilight 6:37 AM EST 6:43 PM EST
Astronomical Twilight 6:08 AM EST 7:13 PM EST
Moon 9:01 PM EST (12/31) 9:28 AM EST (12/31)
Length of Visible Light 11h 06m
Length of Day
10h 13m
Waning Gibbous, 90% of the Moon is Illuminated
Dec 31
Waning Gibbous
Jan 4
Last Quarter
Jan 11
New
Jan 18
First Quarter
Jan 26
Full

Hourly Weather History & Observations

Time (EST) Temp. Dew Point Humidity Pressure Visibility Wind Dir Wind Speed Gust Speed Precip Events Conditions
12:53 AM 30.9 °F 27.0 °F 85% 30.41 in 10.0 mi Calm Calm - N/A   Clear
1:53 AM 32.0 °F 27.0 °F 82% 30.39 in 10.0 mi Calm Calm - N/A   Clear
2:53 AM 30.9 °F 27.0 °F 85% 30.39 in 10.0 mi Calm Calm - N/A   Clear
3:53 AM 30.9 °F 26.1 °F 82% 30.38 in 10.0 mi Calm Calm - N/A   Clear
4:53 AM 30.9 °F 27.0 °F 85% 30.36 in 10.0 mi Calm Calm - N/A   Clear
5:53 AM 30.0 °F 27.0 °F 88% 30.35 in 10.0 mi Calm Calm - N/A   Clear
6:53 AM 30.9 °F 27.0 °F 85% 30.36 in 10.0 mi Calm Calm - N/A   Clear
7:53 AM 34.0 °F 30.0 °F 85% 30.40 in 10.0 mi Calm Calm - N/A   Clear
8:53 AM 39.9 °F 32.0 °F 73% 30.36 in 10.0 mi Calm Calm - 0.01 in   Clear
9:53 AM 50.0 °F 35.1 °F 57% 30.38 in 10.0 mi ESE 6.9 mph - N/A   Clear
10:53 AM 54.0 °F 37.9 °F 55% 30.37 in 10.0 mi SE 5.8 mph - N/A   Clear
11:53 AM 59.0 °F 41.0 °F 51% 30.34 in 10.0 mi East 3.5 mph - N/A   Clear
12:53 PM 63.0 °F 44.1 °F 50% 30.30 in 10.0 mi SW 6.9 mph - N/A   Clear
1:53 PM 64.9 °F 46.9 °F 52% 30.27 in 10.0 mi SSW 10.4 mph - N/A   Overcast
2:53 PM 64.0 °F 46.9 °F 54% 30.26 in 10.0 mi Variable 6.9 mph - N/A   Overcast
3:53 PM 63.0 °F 48.0 °F 58% 30.25 in 10.0 mi South 6.9 mph - N/A   Overcast
4:53 PM 63.0 °F 48.0 °F 58% 30.24 in 10.0 mi South 3.5 mph - N/A   Overcast
5:53 PM 61.0 °F 48.9 °F 64% 30.24 in 10.0 mi Calm Calm - N/A   Overcast
6:53 PM 57.9 °F 48.9 °F 72% 30.25 in 10.0 mi Calm Calm - N/A   Mostly Cloudy
7:53 PM 53.1 °F 46.9 °F 80% 30.24 in 10.0 mi Calm Calm - N/A   Scattered Clouds
8:53 PM 48.0 °F 44.1 °F 86% 30.25 in 10.0 mi Calm Calm - N/A   Clear
9:53 PM 46.9 °F 44.1 °F 90% 30.25 in 10.0 mi Calm Calm - N/A   Clear
10:53 PM 46.9 °F 43.0 °F 86% 30.24 in 10.0 mi Calm Calm - N/A   Clear
11:53 PM 44.1 °F 41.0 °F 89% 30.22 in 9.0 mi Calm Calm - N/A   Clear